TimeCDT,TemperatureF,Dew PointF,Humidity,Sea Level PressureIn,VisibilityMPH,Wind Direction,Wind SpeedMPH,Gust SpeedMPH,PrecipitationIn,Events,Conditions,WindDirDegrees,DateUTC
12:13 AM,33.8,30.2,87,29.87,2.0,WSW,9.2,18.4,N/A,Snow,Light Snow,250,2012-10-05 05:13:00
12:33 AM,33.8,30.2,87,29.88,3.0,West,9.2,16.1,N/A,Snow,Light Snow,260,2012-10-05 05:33:00
12:53 AM,33.8,30.2,87,29.88,3.0,West,11.5,18.4,N/A,Snow,Light Snow,260,2012-10-05 05:53:00
1:13 AM,33.8,30.2,87,29.88,2.5,West,9.2,19.6,0.01,Snow,Light Snow,270,2012-10-05 06:13:00
1:33 AM,33.8,30.2,87,29.88,3.0,West,11.5,16.1,0.01,Snow,Light Snow,260,2012-10-05 06:33:00
1:53 AM,33.8,30.2,87,29.88,2.5,West,10.4,18.4,N/A,Snow,Light Snow,260,2012-10-05 06:53:00
2:13 AM,33.8,30.2,87,29.88,5.0,West,9.2,18.4,N/A,Snow,Light Snow,260,2012-10-05 07:13:00
2:33 AM,33.8,30.2,87,29.88,3.0,West,12.7,18.4,N/A,Snow,Light Snow,260,2012-10-05 07:33:00
2:53 AM,33.8,30.2,87,29.88,4.0,West,11.5,17.3,0.01,Snow,Light Snow,270,2012-10-05 07:53:00
3:13 AM,33.8,30.2,87,29.88,2.5,West,11.5,17.3,0.01,Snow,Light Snow,260,2012-10-05 08:13:00
3:33 AM,33.8,30.2,87,29.88,3.0,West,9.2,18.4,0.01,Snow,Light Snow,260,2012-10-05 08:33:00
3:53 AM,33.8,30.2,87,29.88,4.0,West,11.5,17.3,N/A,Snow,Light Snow,260,2012-10-05 08:53:00
4:13 AM,33.8,30.2,87,29.88,7.0,West,9.2,18.4,N/A,Snow,Light Snow,260,2012-10-05 09:13:00
4:33 AM,33.8,30.2,87,29.88,7.0,West,10.4,21.9,N/A,Snow,Light Snow,260,2012-10-05 09:33:00
4:53 AM,33.8,28.4,81,29.88,7.0,WSW,11.5,17.3,N/A,Snow,Light Snow,250,2012-10-05 09:53:00
5:13 AM,32.0,28.4,87,29.88,3.0,West,11.5,19.6,N/A,Snow,Light Snow,260,2012-10-05 10:13:00
5:33 AM,32.0,28.4,87,29.88,5.0,West,10.4,17.3,0.01,Snow,Light Snow,260,2012-10-05 10:33:00
5:53 AM,32.0,28.4,87,29.88,3.0,West,9.2,17.3,N/A,Snow,Light Snow,260,2012-10-05 10:53:00
6:13 AM,32.0,28.4,87,29.88,4.0,West,10.4,20.7,N/A,Snow,Light Snow,260,2012-10-05 11:13:00
6:33 AM,32.0,28.4,87,29.88,2.5,West,10.4,20.7,N/A,Snow,Light Snow,260,2012-10-05 11:33:00
6:53 AM,32.0,28.4,87,29.88,4.0,West,8.1,16.1,N/A,Snow,Light Snow,260,2012-10-05 11:53:00
7:13 AM,32.0,28.4,87,29.89,10.0,West,9.2,17.3,N/A,Snow,Light Snow,260,2012-10-05 12:13:00
7:33 AM,32.0,28.4,87,29.89,7.0,West,8.1,16.1,N/A,Snow,Light Snow,260,2012-10-05 12:33:00
7:53 AM,32.0,28.4,87,29.89,5.0,West,10.4,16.1,N/A,Snow,Light Snow,270,2012-10-05 12:53:00
8:13 AM,33.8,28.4,81,29.89,7.0,West,10.4,16.1,N/A,Snow,Light Snow,260,2012-10-05 13:13:00
8:33 AM,33.8,28.4,81,29.90,10.0,WSW,8.1,18.4,N/A,Snow,Light Snow,250,2012-10-05 13:33:00
8:53 AM,33.8,30.2,87,29.90,1.5,West,8.1,17.3,N/A,Snow,Light Snow,260,2012-10-05 13:53:00
9:13 AM,33.8,30.2,87,29.90,2.0,West,8.1,19.6,N/A,Snow,Light Snow,260,2012-10-05 14:13:00
9:33 AM,33.8,30.2,87,29.91,2.0,West,12.7,-,N/A,Snow,Light Snow,270,2012-10-05 14:33:00
9:53 AM,33.8,30.2,87,29.91,5.0,West,9.2,-,N/A,Snow,Light Snow,270,2012-10-05 14:53:00
10:13 AM,33.8,30.2,87,29.92,1.5,West,15.0,23.0,N/A,Snow,Light Snow,280,2012-10-05 15:13:00
10:33 AM,33.8,30.2,87,29.93,1.8,West,8.1,17.3,0.01,Snow,Light Snow,260,2012-10-05 15:33:00
10:53 AM,33.8,30.2,87,29.93,1.8,West,10.4,18.4,N/A,Snow,Light Snow,260,2012-10-05 15:53:00
11:13 AM,33.8,30.2,87,29.94,1.2,West,8.1,17.3,N/A,Snow,Light Snow,270,2012-10-05 16:13:00
11:33 AM,33.8,30.2,87,29.94,1.0,West,9.2,-,0.01,Snow,Light Snow,270,2012-10-05 16:33:00
11:53 AM,33.8,30.2,87,29.95,1.5,West,9.2,-,N/A,Snow,Light Snow,270,2012-10-05 16:53:00
12:13 PM,33.8,30.2,87,29.95,1.2,West,6.9,19.6,0.01,Snow,Light Snow,280,2012-10-05 17:13:00
12:33 PM,33.8,30.2,87,29.96,1.8,West,5.8,-,0.01,Snow,Light Snow,270,2012-10-05 17:33:00
12:53 PM,33.8,30.2,87,29.96,2.5,West,6.9,19.6,N/A,Snow,Light Snow,280,2012-10-05 17:53:00
1:13 PM,33.8,30.2,87,29.96,1.2,West,8.1,19.6,N/A,Snow,Light Snow,270,2012-10-05 18:13:00
1:33 PM,33.8,30.2,87,29.97,1.5,WNW,8.1,17.3,0.01,Snow,Light Snow,290,2012-10-05 18:33:00
1:53 PM,33.8,30.2,87,29.97,3.0,West,6.9,-,N/A,Snow,Light Snow,270,2012-10-05 18:53:00
2:13 PM,33.8,30.2,87,29.97,10.0,WNW,8.1,17.3,N/A,Snow,Light Snow,290,2012-10-05 19:13:00
2:33 PM,35.6,30.2,81,29.97,10.0,West,8.1,-,N/A,,Overcast,280,2012-10-05 19:33:00
2:53 PM,35.6,32.0,87,29.97,7.0,WNW,5.8,-,N/A,Snow,Light Snow,290,2012-10-05 19:53:00
3:13 PM,35.6,32.0,87,29.98,10.0,WNW,8.1,-,N/A,,Overcast,290,2012-10-05 20:13:00
3:33 PM,35.6,33.8,93,29.98,7.0,WNW,6.9,-,N/A,Snow,Light Snow,290,2012-10-05 20:33:00
3:53 PM,37.4,33.8,87,29.98,10.0,WNW,6.9,16.1,N/A,,Overcast,290,2012-10-05 20:53:00
4:13 PM,35.6,32.0,87,29.99,10.0,West,8.1,18.4,N/A,,Light Drizzle,280,2012-10-05 21:13:00
4:34 PM,35.6,33.8,93,29.99,10.0,WNW,5.8,-,N/A,Rain,Light Rain,290,2012-10-05 21:34:00
4:53 PM,35.6,33.8,93,30.00,10.0,WNW,4.6,-,N/A,Rain,Light Rain,290,2012-10-05 21:53:00
5:13 PM,35.6,32.0,87,30.01,7.0,WNW,6.9,-,N/A,Rain,Light Rain,290,2012-10-05 22:13:00
5:33 PM,35.6,32.0,87,30.02,10.0,WNW,6.9,-,N/A,Rain,Light Rain,290,2012-10-05 22:33:00
5:53 PM,35.6,32.0,87,30.02,5.0,West,5.8,-,N/A,Rain,Rain,280,2012-10-05 22:53:00
6:13 PM,35.6,32.0,87,30.03,4.0,WNW,5.8,-,N/A,Rain,Light Rain,300,2012-10-05 23:13:00
6:33 PM,35.6,32.0,87,30.04,7.0,NW,3.5,-,N/A,Snow,Light Snow,310,2012-10-05 23:33:00
6:53 PM,35.6,32.0,87,30.05,7.0,WNW,4.6,-,N/A,Rain,Light Rain,300,2012-10-05 23:53:00
7:13 PM,35.6,32.0,87,30.05,10.0,NW,4.6,-,N/A,Rain,Light Rain,310,2012-10-06 00:13:00
7:34 PM,35.6,32.0,87,30.06,10.0,NW,5.8,-,N/A,,Overcast,310,2012-10-06 00:34:00
7:53 PM,33.8,32.0,93,30.07,5.0,NNW,6.9,16.1,N/A,Snow,Light Snow,330,2012-10-06 00:53:00
8:13 PM,33.8,32.0,93,30.08,5.0,NNW,5.8,-,0.01,Snow,Light Snow,330,2012-10-06 01:13:00
8:33 PM,33.8,32.0,93,30.08,4.0,NNW,6.9,-,0.01,Snow,Light Snow,330,2012-10-06 01:33:00
8:53 PM,33.8,30.2,87,30.09,3.0,NNW,8.1,-,N/A,Snow,Light Snow,330,2012-10-06 01:53:00
9:13 PM,33.8,30.2,87,30.10,4.0,NNW,6.9,-,N/A,Snow,Light Snow,340,2012-10-06 02:13:00
9:33 PM,33.8,30.2,87,30.10,10.0,NNW,9.2,-,N/A,Snow,Light Snow,340,2012-10-06 02:33:00
9:53 PM,33.8,30.2,87,30.11,7.0,NNW,8.1,16.1,N/A,Snow,Light Snow,340,2012-10-06 02:53:00
10:13 PM,33.8,30.2,87,30.12,10.0,North,6.9,-,N/A,Snow,Light Snow,350,2012-10-06 03:13:00
10:33 PM,33.8,30.2,87,30.12,3.0,NNW,10.4,-,N/A,Snow,Light Snow,340,2012-10-06 03:33:00
10:53 PM,33.8,30.2,87,30.12,7.0,NNW,8.1,-,N/A,Snow,Light Snow,330,2012-10-06 03:53:00
11:13 PM,33.8,30.2,87,30.12,5.0,NNW,9.2,16.1,N/A,Snow,Light Snow,330,2012-10-06 04:13:00
11:53 PM,33.8,30.2,87,30.13,7.0,North,5.8,-,N/A,Snow,Light Snow,350,2012-10-06 04:53:00